KQA205 VABB-HKJK

Flight info

Callsign KQA205
Flight time N/A
Altitude 36000
Route RAXET2A DARMI G450 ORLID UM306 EGNIP/N0449F380 UM306 MOGDU UT253 TULAP UM306 KESOM UL303 EPLAV UM306 IBROM DCT NV
Aircraft B738/M-SDE2E3FGHIRWXY/LB1

Departure

Time 2026-05-07 20:30
Airport Chhatrapati Shivaji Maharaj International Airport (VABB)

Arrival

Time N/A
Airport Jomo Kenyatta International Airport (HKJK)
Time Latitude Longitude Altitude Speed Heading
2026-05-07 19:57 19.09511 72.87130 48 ft 0 kts 140°
2026-05-07 20:14 19.09521 72.87122 47 ft 4 kts 140°
2026-05-07 20:14 19.09541 72.87103 47 ft 4 kts 140°
2026-05-07 20:14 19.09559 72.87087 45 ft 4 kts 142°
2026-05-07 20:15 19.09581 72.87078 43 ft 4 kts 192°
2026-05-07 20:15 19.09604 72.87089 45 ft 3 kts 224°
2026-05-07 20:15 19.09609 72.87094 46 ft 0 kts 224°
2026-05-07 20:18 19.09608 72.87094 45 ft 1 kts 224°
2026-05-07 20:19 19.09599 72.87084 45 ft 0 kts 224°
2026-05-07 20:19 19.09586 72.87071 46 ft 5 kts 224°
2026-05-07 20:20 19.09567 72.87051 48 ft 6 kts 224°
2026-05-07 20:20 19.09564 72.87048 48 ft 0 kts 224°
2026-05-07 20:21 19.09520 72.86999 48 ft 9 kts 229°
2026-05-07 20:21 19.09479 72.86951 48 ft 10 kts 229°
2026-05-07 20:21 19.09434 72.86896 48 ft 10 kts 229°
2026-05-07 20:21 19.09373 72.86877 47 ft 10 kts 158°
2026-05-07 20:22 19.09338 72.86908 48 ft 10 kts 136°
2026-05-07 20:22 19.09285 72.86961 48 ft 10 kts 136°
2026-05-07 20:22 19.09240 72.87013 48 ft 9 kts 120°
2026-05-07 20:22 19.09213 72.87070 48 ft 9 kts 145°
2026-05-07 20:23 19.09153 72.87090 49 ft 9 kts 145°
2026-05-07 20:23 19.09135 72.87176 48 ft 10 kts 87°
2026-05-07 20:23 19.09134 72.87223 48 ft 9 kts 100°
2026-05-07 20:23 19.09088 72.87266 48 ft 10 kts 167°
2026-05-07 20:24 19.09051 72.87315 49 ft 10 kts 94°
2026-05-07 20:24 19.09051 72.87391 48 ft 11 kts 89°
2026-05-07 20:24 19.09052 72.87475 48 ft 12 kts 89°
2026-05-07 20:24 19.09054 72.87568 48 ft 13 kts 89°
2026-05-07 20:25 19.09055 72.87669 48 ft 14 kts 89°
2026-05-07 20:25 19.09056 72.87773 48 ft 14 kts 90°
2026-05-07 20:25 19.09058 72.87873 48 ft 13 kts 89°
2026-05-07 20:25 19.09059 72.87972 48 ft 13 kts 89°
2026-05-07 20:26 19.09051 72.88039 45 ft 9 kts 125°
2026-05-07 20:26 19.09003 72.88053 47 ft 0 kts 180°
2026-05-07 20:27 19.09000 72.88053 47 ft 2 kts 180°
2026-05-07 20:28 19.08979 72.88053 44 ft 5 kts 180°
2026-05-07 20:28 19.08937 72.88052 45 ft 7 kts 180°
2026-05-07 20:28 19.08895 72.88028 46 ft 8 kts 245°
2026-05-07 20:28 19.08889 72.87972 46 ft 8 kts 269°
2026-05-07 20:29 19.08887 72.87831 47 ft 40 kts 269°
2026-05-07 20:29 19.08878 72.87280 50 ft 108 kts 269°
2026-05-07 20:29 19.08862 72.86276 48 ft 164 kts 269°
2026-05-07 20:29 19.08840 72.85004 620 ft 170 kts 269°
2026-05-07 20:30 19.08808 72.83735 1232 ft 184 kts 270°
2026-05-07 20:30 19.08778 72.82291 1632 ft 204 kts 271°
2026-05-07 20:30 19.08783 72.80804 2237 ft 209 kts 271°
2026-05-07 20:30 19.08791 72.79190 2465 ft 232 kts 271°
2026-05-07 20:31 19.08790 72.77370 2593 ft 264 kts 270°
2026-05-07 20:31 19.08762 72.75378 3176 ft 271 kts 269°
2026-05-07 20:31 19.08801 72.73419 4101 ft 266 kts 275°
2026-05-07 20:31 19.08990 72.71437 4709 ft 274 kts 278°
2026-05-07 20:32 19.09224 72.69425 5389 ft 277 kts 278°
2026-05-07 20:32 19.09520 72.67407 6147 ft 278 kts 280°
2026-05-07 20:32 19.09780 72.65374 6830 ft 281 kts 278°
2026-05-07 20:32 19.10003 72.63308 7478 ft 285 kts 277°
2026-05-07 20:33 19.10218 72.61237 8131 ft 289 kts 277°
2026-05-07 20:33 19.10467 72.59119 8804 ft 292 kts 277°
2026-05-07 20:33 19.10695 72.56978 9525 ft 295 kts 276°
2026-05-07 20:33 19.10922 72.54805 10106 ft 302 kts 276°
2026-05-07 20:34 19.11166 72.52520 10271 ft 324 kts 276°
2026-05-07 20:34 19.11414 72.50081 10429 ft 344 kts 276°
2026-05-07 20:34 19.11606 72.48220 10667 ft 353 kts 276°
2026-05-07 20:35 19.11770 72.46643 10925 ft 359 kts 276°
2026-05-07 20:36 19.12050 72.43994 11447 ft 364 kts 275°
2026-05-07 20:36 19.12333 72.41329 12060 ft 367 kts 275°
2026-05-07 20:36 19.12619 72.38638 12657 ft 370 kts 275°
2026-05-07 20:36 19.12904 72.35956 13219 ft 374 kts 275°
2026-05-07 20:37 19.13196 72.33208 13753 ft 378 kts 275°
2026-05-07 20:37 19.13440 72.30905 14175 ft 380 kts 275°
2026-05-07 20:37 19.13498 72.30357 14282 ft 381 kts 275°
2026-05-07 20:38 19.13793 72.27569 14840 ft 382 kts 275°
2026-05-07 20:38 19.14088 72.24771 15401 ft 383 kts 275°
2026-05-07 20:38 19.14399 72.21944 15787 ft 390 kts 275°
2026-05-07 20:38 19.14695 72.19090 16307 ft 391 kts 275°
2026-05-07 20:39 19.14988 72.16338 16877 ft 391 kts 276°
2026-05-07 20:39 19.15106 72.15293 17086 ft 391 kts 276°
2026-05-07 20:40 19.15316 72.12426 17573 ft 393 kts 266°
2026-05-07 20:40 19.14682 72.09629 17997 ft 394 kts 243°
2026-05-07 20:40 19.13206 72.07204 18458 ft 393 kts 227°
2026-05-07 20:40 19.11293 72.05176 18795 ft 397 kts 224°
2026-05-07 20:41 19.09281 72.03154 19073 ft 403 kts 223°
2026-05-07 20:41 19.07205 72.01137 19404 ft 406 kts 223°
2026-05-07 20:41 19.05122 71.99111 19759 ft 409 kts 224°
2026-05-07 20:41 19.03032 71.97044 20083 ft 413 kts 224°
2026-05-07 20:42 19.00892 71.94999 20416 ft 416 kts 224°
2026-05-07 20:42 18.98788 71.92899 20781 ft 418 kts 225°
2026-05-07 20:42 18.96687 71.90760 21109 ft 421 kts 225°
2026-05-07 20:42 18.94566 71.88606 21388 ft 425 kts 225°
2026-05-07 20:43 18.92446 71.86471 21684 ft 428 kts 225°
2026-05-07 20:43 18.90279 71.84301 22019 ft 430 kts 225°
2026-05-07 20:43 18.88129 71.82105 22328 ft 432 kts 227°
2026-05-07 20:43 18.86056 71.79798 22626 ft 434 kts 230°
2026-05-07 20:44 18.84022 71.77434 22926 ft 436 kts 230°
2026-05-07 20:44 18.81998 71.75047 23197 ft 439 kts 231°
2026-05-07 20:44 18.79955 71.72640 23462 ft 441 kts 231°
2026-05-07 20:44 18.77894 71.70227 23697 ft 443 kts 230°
2026-05-07 20:45 18.75821 71.67815 23969 ft 444 kts 230°
2026-05-07 20:45 18.73742 71.65410 24244 ft 445 kts 230°
2026-05-07 20:45 18.71678 71.63029 24499 ft 446 kts 230°
2026-05-07 20:45 18.69578 71.60611 24744 ft 448 kts 230°
2026-05-07 20:46 18.67469 71.58185 24991 ft 449 kts 230°
2026-05-07 20:46 18.65360 71.55761 25254 ft 450 kts 230°
2026-05-07 20:46 18.63239 71.53324 25504 ft 451 kts 230°
2026-05-07 20:46 18.61115 71.50883 25757 ft 452 kts 230°
2026-05-07 20:47 18.58983 71.48435 26004 ft 454 kts 230°
2026-05-07 20:47 18.56850 71.45986 26238 ft 455 kts 229°
2026-05-07 20:47 18.54735 71.43557 26479 ft 456 kts 229°
2026-05-07 20:47 18.52584 71.41090 26714 ft 457 kts 229°
2026-05-07 20:48 18.50433 71.38622 26950 ft 459 kts 229°
2026-05-07 20:48 18.48269 71.36142 27187 ft 460 kts 229°
2026-05-07 20:48 18.46100 71.33656 27424 ft 461 kts 229°
2026-05-07 20:48 18.43926 71.31165 27656 ft 462 kts 229°
2026-05-07 20:49 18.41745 71.28668 27877 ft 464 kts 229°
2026-05-07 20:49 18.39563 71.26170 28088 ft 465 kts 229°
2026-05-07 20:49 18.37369 71.23660 28315 ft 466 kts 229°
2026-05-07 20:49 18.35170 71.21144 28533 ft 467 kts 229°
2026-05-07 20:50 18.32993 71.18656 28742 ft 469 kts 229°
2026-05-07 20:50 18.30787 71.16135 28949 ft 470 kts 229°
2026-05-07 20:50 18.28569 71.13601 29151 ft 471 kts 229°
2026-05-07 20:50 18.26345 71.11061 29355 ft 472 kts 229°
2026-05-07 20:51 18.24115 71.08516 29554 ft 473 kts 229°
2026-05-07 20:51 18.21885 71.05972 29777 ft 474 kts 229°
2026-05-07 20:51 18.19651 71.03425 30039 ft 473 kts 229°
2026-05-07 20:51 18.17455 71.00921 30323 ft 471 kts 229°
2026-05-07 20:52 18.15238 70.98396 30609 ft 469 kts 229°
2026-05-07 20:52 18.13033 70.95884 30851 ft 468 kts 229°
2026-05-07 20:52 18.10826 70.93371 31098 ft 467 kts 229°
2026-05-07 20:52 18.08623 70.90863 31354 ft 466 kts 229°
2026-05-07 20:53 18.06425 70.88361 31625 ft 465 kts 229°
2026-05-07 20:53 18.04237 70.85873 31868 ft 464 kts 229°
2026-05-07 20:53 18.02047 70.83383 32101 ft 463 kts 229°
2026-05-07 20:53 17.99858 70.80896 32335 ft 463 kts 229°
2026-05-07 20:54 17.97673 70.78413 32593 ft 462 kts 229°
2026-05-07 20:54 17.95528 70.75978 32863 ft 460 kts 229°
2026-05-07 20:54 17.93356 70.73511 33117 ft 460 kts 229°
2026-05-07 20:54 17.91184 70.71047 33337 ft 459 kts 229°
2026-05-07 20:55 17.89021 70.68593 33595 ft 458 kts 229°
2026-05-07 20:55 17.86858 70.66140 33848 ft 457 kts 229°
2026-05-07 20:55 17.84697 70.63689 34041 ft 457 kts 229°
2026-05-07 20:55 17.82539 70.61243 34234 ft 456 kts 229°
2026-05-07 20:56 17.80392 70.58813 34468 ft 454 kts 229°
2026-05-07 20:56 17.78389 70.56262 34654 ft 452 kts 237°
2026-05-07 20:56 17.76717 70.53524 34833 ft 451 kts 240°
2026-05-07 20:56 17.75120 70.50695 35035 ft 450 kts 241°
2026-05-07 20:57 17.73554 70.47863 35201 ft 450 kts 241°
2026-05-07 20:57 17.71976 70.45024 35362 ft 450 kts 240°
2026-05-07 20:57 17.70383 70.42203 35569 ft 449 kts 240°
2026-05-07 20:57 17.68784 70.39411 35794 ft 447 kts 240°
2026-05-07 20:58 17.67168 70.36615 35796 ft 450 kts 239°
2026-05-07 20:58 17.63903 70.31013 35814 ft 449 kts 239°
2026-05-07 20:59 17.60674 70.25488 35817 ft 446 kts 239°
2026-05-07 20:59 17.57439 70.19954 35821 ft 444 kts 239°
2026-05-07 21:00 17.54222 70.14453 35820 ft 442 kts 239°
2026-05-07 21:00 17.51032 70.09001 35825 ft 442 kts 239°
2026-05-07 21:01 17.47817 70.03509 35830 ft 442 kts 239°
2026-05-07 21:01 17.44595 69.98012 35825 ft 444 kts 239°
2026-05-07 21:02 17.41361 69.92498 35832 ft 446 kts 239°
2026-05-07 21:02 17.38106 69.86953 35826 ft 448 kts 239°
2026-05-07 21:03 17.34870 69.81432 35833 ft 449 kts 239°
2026-05-07 21:03 17.31587 69.75852 35826 ft 450 kts 239°
2026-05-07 21:04 17.28297 69.70270 35823 ft 452 kts 239°
2026-05-07 21:04 17.24998 69.64669 35831 ft 452 kts 239°
2026-05-07 21:05 17.21702 69.59076 35820 ft 452 kts 239°
2026-05-07 21:05 17.18435 69.53523 35825 ft 451 kts 239°
2026-05-07 21:06 17.15219 69.47895 35822 ft 450 kts 240°
2026-05-07 21:06 17.12038 69.42274 35824 ft 449 kts 240°
2026-05-07 21:07 17.08852 69.36665 35830 ft 448 kts 240°
2026-05-07 21:07 17.05692 69.31118 35821 ft 447 kts 240°
2026-05-07 21:08 17.02508 69.25541 35834 ft 446 kts 240°
2026-05-07 21:08 16.99331 69.19980 35829 ft 446 kts 240°
2026-05-07 21:09 16.96152 69.14419 35828 ft 445 kts 239°
2026-05-07 21:09 16.92996 69.08903 35834 ft 446 kts 239°
2026-05-07 21:10 16.89812 69.03342 35828 ft 446 kts 239°
2026-05-07 21:10 16.86624 68.97781 35835 ft 447 kts 239°
2026-05-07 21:11 16.83427 68.92206 35823 ft 448 kts 239°
2026-05-07 21:11 16.78643 68.83874 35828 ft 449 kts 239°
2026-05-07 21:12 16.75431 68.78285 35840 ft 449 kts 239°
2026-05-07 21:12 16.72209 68.72683 35838 ft 450 kts 239°
2026-05-07 21:13 16.68985 68.67082 35839 ft 451 kts 239°
2026-05-07 21:13 16.65772 68.61506 35836 ft 451 kts 239°
2026-05-07 21:14 16.62539 68.55899 35833 ft 452 kts 239°
2026-05-07 21:14 16.59300 68.50285 35836 ft 451 kts 239°
2026-05-07 21:15 16.56064 68.44681 35836 ft 451 kts 239°
2026-05-07 21:15 16.52846 68.39114 35839 ft 451 kts 239°
2026-05-07 21:16 16.49610 68.33519 35839 ft 451 kts 239°
2026-05-07 21:16 16.46376 68.27932 35837 ft 450 kts 239°
2026-05-07 21:17 16.43137 68.22342 35839 ft 450 kts 239°
2026-05-07 21:17 16.39906 68.16767 35841 ft 450 kts 239°
2026-05-07 21:18 16.36691 68.11227 35843 ft 449 kts 239°
2026-05-07 21:18 16.33461 68.05663 35841 ft 449 kts 239°
2026-05-07 21:19 16.30226 68.00095 35841 ft 449 kts 239°
2026-05-07 21:19 16.26995 67.94538 35841 ft 449 kts 239°
2026-05-07 21:20 16.23683 67.89033 35841 ft 449 kts 238°
2026-05-07 21:20 16.20324 67.83602 35842 ft 449 kts 237°
2026-05-07 21:21 16.16948 67.78138 35839 ft 449 kts 238°
2026-05-07 21:21 16.13576 67.72659 35842 ft 449 kts 238°
2026-05-07 21:22 16.10211 67.67186 35842 ft 449 kts 238°
2026-05-07 21:22 16.06869 67.61751 35840 ft 450 kts 238°
2026-05-07 21:23 16.03495 67.56271 35843 ft 450 kts 238°
2026-05-07 21:23 16.00121 67.50793 35841 ft 450 kts 238°
2026-05-07 21:24 15.96770 67.45358 35842 ft 450 kts 238°
2026-05-07 21:24 15.93395 67.39889 35842 ft 450 kts 238°
2026-05-07 21:25 15.90014 67.34413 35841 ft 450 kts 237°
2026-05-07 21:25 15.86635 67.28946 35842 ft 450 kts 237°
2026-05-07 21:26 15.83251 67.23472 35841 ft 450 kts 237°
2026-05-07 21:26 15.79893 67.18046 35842 ft 450 kts 237°
2026-05-07 21:27 15.76506 67.12577 35843 ft 450 kts 237°
2026-05-07 21:27 15.73125 67.07121 35843 ft 450 kts 237°
2026-05-07 21:28 15.69739 67.01660 35845 ft 449 kts 237°
2026-05-07 21:28 15.66379 66.96247 35842 ft 449 kts 237°
2026-05-07 21:29 15.62994 66.90794 35844 ft 449 kts 237°
2026-05-07 21:29 15.59613 66.85354 35851 ft 449 kts 237°
2026-05-07 21:30 15.56258 66.79899 35848 ft 449 kts 238°
2026-05-07 21:30 15.52985 66.74440 35851 ft 448 kts 238°
2026-05-07 21:31 15.49701 66.68951 35849 ft 448 kts 238°
2026-05-07 21:31 15.46405 66.63463 35847 ft 448 kts 238°
2026-05-07 21:32 15.43109 66.57987 35847 ft 448 kts 238°
2026-05-07 21:32 15.39807 66.52509 35848 ft 448 kts 238°
2026-05-07 21:33 15.36508 66.47040 35849 ft 448 kts 238°
2026-05-07 21:33 15.33227 66.41605 35849 ft 448 kts 238°
2026-05-07 21:34 15.29927 66.36141 35847 ft 448 kts 238°
2026-05-07 21:34 15.26622 66.30672 35849 ft 448 kts 238°
2026-05-07 21:35 15.23318 66.25211 35847 ft 448 kts 238°
2026-05-07 21:35 15.20045 66.19724 35848 ft 447 kts 238°
2026-05-07 21:36 15.16759 66.14311 35848 ft 447 kts 238°
2026-05-07 21:36 15.13433 66.08875 35858 ft 447 kts 238°
2026-05-07 21:37 15.10114 66.03422 35852 ft 447 kts 238°
2026-05-07 21:37 15.06827 65.98008 35853 ft 448 kts 238°
2026-05-07 21:38 15.03512 65.92549 35849 ft 448 kts 238°
2026-05-07 21:38 15.00201 65.87100 35849 ft 448 kts 238°
2026-05-07 21:39 14.96893 65.81638 35850 ft 448 kts 239°
2026-05-07 21:39 14.93612 65.76229 35854 ft 447 kts 237°
2026-05-07 21:40 14.90265 65.70803 35852 ft 447 kts 237°
2026-05-07 21:40 14.86955 65.65364 35855 ft 447 kts 237°
2026-05-07 21:41 14.83641 65.59917 35849 ft 447 kts 237°
2026-05-07 21:41 14.80349 65.54519 35856 ft 447 kts 237°
2026-05-07 21:42 14.77031 65.49087 35855 ft 447 kts 237°
2026-05-07 21:42 14.73708 65.43651 35855 ft 447 kts 237°
2026-05-07 21:43 14.70388 65.38223 35859 ft 447 kts 237°
2026-05-07 21:43 14.67086 65.32828 35864 ft 447 kts 237°
2026-05-07 21:44 14.63760 65.27396 35862 ft 447 kts 237°
2026-05-07 21:44 14.60436 65.21971 35861 ft 447 kts 237°
2026-05-07 21:45 14.57103 65.16545 35855 ft 447 kts 237°
2026-05-07 21:45 14.53777 65.11163 35858 ft 447 kts 237°
2026-05-07 21:46 14.50430 65.05752 35860 ft 447 kts 237°
2026-05-07 21:46 14.47084 65.00342 35861 ft 448 kts 237°
2026-05-07 21:47 14.43732 64.94924 35853 ft 448 kts 237°
2026-05-07 21:47 14.40407 64.89552 35856 ft 447 kts 237°
2026-05-07 21:48 14.37054 64.84138 35859 ft 448 kts 237°
2026-05-07 21:48 14.33704 64.78733 35862 ft 448 kts 237°
2026-05-07 21:49 14.30347 64.73321 35862 ft 448 kts 237°
2026-05-07 21:49 14.27016 64.67954 35857 ft 448 kts 237°
2026-05-07 21:50 14.23656 64.62544 35854 ft 448 kts 237°
2026-05-07 21:50 14.20301 64.57145 35858 ft 448 kts 237°
2026-05-07 21:51 14.16939 64.51743 35860 ft 447 kts 237°
2026-05-07 21:51 14.13624 64.46375 35855 ft 447 kts 237°
2026-05-07 21:52 14.10260 64.40990 35859 ft 447 kts 237°
2026-05-07 21:52 14.06893 64.35601 35859 ft 447 kts 237°
2026-05-07 21:53 14.03534 64.30218 35860 ft 447 kts 237°
2026-05-07 21:53 14.00196 64.24867 35858 ft 447 kts 237°
2026-05-07 21:54 13.96834 64.19482 35856 ft 447 kts 237°
2026-05-07 21:54 13.93478 64.14109 35859 ft 446 kts 237°
2026-05-07 21:55 13.90116 64.08730 35858 ft 446 kts 237°
2026-05-07 21:55 13.86780 64.03397 35856 ft 446 kts 237°
2026-05-07 21:56 13.83422 63.98031 35856 ft 446 kts 237°
2026-05-07 21:56 13.80060 63.92663 35857 ft 446 kts 237°
2026-05-07 21:57 13.76702 63.87305 35861 ft 446 kts 237°
2026-05-07 21:57 13.73362 63.81977 35856 ft 446 kts 237°
2026-05-07 21:58 13.70002 63.76623 35857 ft 446 kts 237°
2026-05-07 21:58 13.66638 63.71264 35860 ft 446 kts 237°
2026-05-07 21:59 13.63278 63.65913 35855 ft 446 kts 237°
2026-05-07 21:59 13.59939 63.60601 35858 ft 446 kts 237°
2026-05-07 22:00 13.56581 63.55244 35863 ft 445 kts 237°
2026-05-07 22:00 13.53232 63.49884 35862 ft 445 kts 237°
2026-05-07 22:01 13.49888 63.44531 35855 ft 445 kts 237°
2026-05-07 22:01 13.46559 63.39208 35857 ft 445 kts 237°
2026-05-07 22:02 13.43210 63.33858 35863 ft 445 kts 237°
2026-05-07 22:02 13.39855 63.28502 35861 ft 446 kts 237°
2026-05-07 22:03 13.36525 63.23189 35859 ft 446 kts 237°
2026-05-07 22:03 13.33169 63.17845 35865 ft 445 kts 237°
2026-05-07 22:04 13.29812 63.12492 35862 ft 446 kts 237°
2026-05-07 22:04 13.26571 63.07078 35862 ft 445 kts 238°
2026-05-07 22:05 13.23187 63.01753 35869 ft 445 kts 236°
2026-05-07 22:05 13.19791 62.96494 35858 ft 445 kts 236°
2026-05-07 22:06 13.16406 62.91163 35858 ft 446 kts 236°
2026-05-07 22:06 13.13044 62.85826 35862 ft 446 kts 236°
2026-05-07 22:07 13.09679 62.80479 35857 ft 446 kts 236°
2026-05-07 22:07 13.06339 62.75175 35861 ft 446 kts 236°
2026-05-07 22:08 13.02969 62.69830 35856 ft 446 kts 236°
2026-05-07 22:08 12.99601 62.64492 35854 ft 446 kts 236°
2026-05-07 22:09 12.96226 62.59147 35856 ft 446 kts 236°
2026-05-07 22:09 12.92873 62.53838 35861 ft 446 kts 236°
2026-05-07 22:10 12.89499 62.48501 35853 ft 446 kts 236°
2026-05-07 22:10 12.86125 62.43165 35859 ft 446 kts 236°
2026-05-07 22:11 12.82744 62.37823 35853 ft 446 kts 236°
2026-05-07 22:11 12.79389 62.32524 35853 ft 447 kts 236°
2026-05-07 22:12 12.76005 62.27183 35853 ft 447 kts 236°
2026-05-07 22:12 12.72625 62.21852 35856 ft 446 kts 236°
2026-05-07 22:13 12.69262 62.16550 35852 ft 447 kts 236°
2026-05-07 22:13 12.65880 62.11221 35852 ft 447 kts 236°
2026-05-07 22:14 12.62492 62.05886 35854 ft 447 kts 236°
2026-05-07 22:14 12.59108 62.00559 35845 ft 447 kts 236°
2026-05-07 22:15 12.55739 61.95260 35859 ft 447 kts 236°
2026-05-07 22:15 12.52350 61.89932 35857 ft 447 kts 236°
2026-05-07 22:16 12.48952 61.84595 35857 ft 447 kts 236°
2026-05-07 22:16 12.45555 61.79261 35853 ft 448 kts 236°
2026-05-07 22:17 12.42155 61.73925 35857 ft 448 kts 236°
2026-05-07 22:17 12.38771 61.68617 35855 ft 448 kts 236°
2026-05-07 22:18 12.33659 61.60605 35854 ft 449 kts 236°
2026-05-07 22:19 12.30246 61.55259 35851 ft 449 kts 236°
2026-05-07 22:19 12.26858 61.49956 35858 ft 449 kts 236°
2026-05-07 22:20 12.23442 61.44612 35859 ft 449 kts 236°
2026-05-07 22:20 12.20030 61.39277 35859 ft 449 kts 236°
2026-05-07 22:21 12.16613 61.33938 35856 ft 448 kts 236°
2026-05-07 22:21 12.13222 61.28641 35855 ft 448 kts 236°
2026-05-07 22:22 12.09804 61.23305 35853 ft 449 kts 236°
2026-05-07 22:22 12.06388 61.17976 35860 ft 449 kts 236°
2026-05-07 22:23 12.02967 61.12642 35860 ft 449 kts 236°
2026-05-07 22:23 11.99570 61.07347 35859 ft 449 kts 236°
2026-05-07 22:24 11.96150 61.02022 35857 ft 449 kts 236°
2026-05-07 22:24 11.92724 60.96688 35862 ft 449 kts 236°
2026-05-07 22:25 11.89301 60.91362 35854 ft 449 kts 236°
2026-05-07 22:25 11.85895 60.86065 35862 ft 449 kts 236°
2026-05-07 22:26 11.82471 60.80743 35853 ft 449 kts 236°
2026-05-07 22:26 11.79041 60.75417 35853 ft 449 kts 236°
2026-05-07 22:27 11.75611 60.70091 35861 ft 449 kts 236°
2026-05-07 22:27 11.72173 60.64756 35860 ft 450 kts 236°
2026-05-07 22:28 11.68759 60.59461 35863 ft 450 kts 236°
2026-05-07 22:28 11.65316 60.54125 35860 ft 450 kts 236°
2026-05-07 22:29 11.61868 60.48784 35853 ft 451 kts 236°
2026-05-07 22:29 11.58422 60.43446 35862 ft 451 kts 236°
2026-05-07 22:30 11.54991 60.38137 35858 ft 451 kts 236°
2026-05-07 22:30 11.51535 60.32792 35856 ft 451 kts 236°
2026-05-07 22:31 11.48083 60.27455 35861 ft 451 kts 236°
2026-05-07 22:31 11.44630 60.22119 35853 ft 451 kts 236°
2026-05-07 22:32 11.41198 60.16761 35858 ft 451 kts 236°
2026-05-07 22:32 11.37739 60.11484 35848 ft 451 kts 236°
2026-05-07 22:33 11.34287 60.06144 35857 ft 451 kts 236°
2026-05-07 22:33 11.30828 60.00818 35862 ft 451 kts 236°
2026-05-07 22:34 11.27424 59.95492 35859 ft 451 kts 237°
2026-05-07 22:34 11.24042 59.90107 35858 ft 452 kts 237°
2026-05-07 22:35 11.20655 59.84714 35860 ft 452 kts 237°
2026-05-07 22:35 11.17263 59.79330 35861 ft 452 kts 237°
2026-05-07 22:36 11.13889 59.73984 35858 ft 452 kts 237°
2026-05-07 22:36 11.10484 59.68593 35862 ft 452 kts 237°
2026-05-07 22:37 11.07082 59.63209 35860 ft 452 kts 237°
2026-05-07 22:37 11.03673 59.57817 35851 ft 453 kts 237°
2026-05-07 22:38 11.00288 59.52465 35864 ft 453 kts 237°
2026-05-07 22:38 10.96874 59.47071 35861 ft 454 kts 237°
2026-05-07 22:39 10.93453 59.41668 35859 ft 454 kts 237°
2026-05-07 22:39 10.90032 59.36266 35857 ft 455 kts 236°
2026-05-07 22:40 10.86625 59.30890 35858 ft 455 kts 237°
2026-05-07 22:40 10.83194 59.25481 35865 ft 455 kts 237°
2026-05-07 22:41 10.79757 59.20063 35860 ft 456 kts 236°
2026-05-07 22:41 10.76322 59.14651 35858 ft 456 kts 236°
2026-05-07 22:42 10.72904 59.09268 35860 ft 456 kts 236°
2026-05-07 22:42 10.69466 59.03858 35856 ft 456 kts 236°
2026-05-07 22:43 10.66051 58.98421 35865 ft 456 kts 237°
2026-05-07 22:43 10.62613 58.93012 35860 ft 456 kts 236°
2026-05-07 22:44 10.59144 58.87626 35863 ft 456 kts 236°
2026-05-07 22:44 10.55716 58.82252 35861 ft 456 kts 236°
2026-05-07 22:45 10.52276 58.76846 35863 ft 456 kts 236°
2026-05-07 22:45 10.48828 58.71433 35860 ft 456 kts 236°
2026-05-07 22:46 10.45384 58.66029 35860 ft 456 kts 236°
2026-05-07 22:46 10.41956 58.60655 35859 ft 456 kts 236°
2026-05-07 22:47 10.38509 58.55254 35860 ft 456 kts 236°
2026-05-07 22:47 10.35056 58.49846 35860 ft 456 kts 236°
2026-05-07 22:48 10.31630 58.44482 35862 ft 456 kts 236°
2026-05-07 22:48 10.28175 58.39075 35857 ft 456 kts 236°
2026-05-07 22:49 10.24724 58.33676 35863 ft 456 kts 236°
2026-05-07 22:49 10.21266 58.28269 35861 ft 456 kts 236°
2026-05-07 22:50 10.17838 58.22901 35858 ft 457 kts 236°
2026-05-07 22:50 10.14464 58.17444 35857 ft 457 kts 237°
2026-05-07 22:51 10.11113 58.11959 35860 ft 457 kts 237°
2026-05-07 22:51 10.07755 58.06477 35857 ft 457 kts 237°
2026-05-07 22:52 10.04414 58.01045 35857 ft 457 kts 237°
2026-05-07 22:52 10.01047 57.95577 35857 ft 457 kts 237°
2026-05-07 22:53 9.97673 57.90101 35861 ft 457 kts 237°
2026-05-07 22:53 9.94305 57.84638 35857 ft 457 kts 237°
2026-05-07 22:54 9.90956 57.79207 35858 ft 457 kts 237°
2026-05-07 22:54 9.87590 57.73752 35857 ft 456 kts 237°
2026-05-07 22:55 9.84222 57.68295 35858 ft 456 kts 237°
2026-05-07 22:55 9.80867 57.62844 35860 ft 455 kts 236°
2026-05-07 22:56 9.77487 57.57413 35855 ft 455 kts 237°
2026-05-07 22:56 9.74159 57.52021 35856 ft 454 kts 237°
2026-05-07 22:57 9.70814 57.46602 35857 ft 453 kts 237°
2026-05-07 22:57 9.67465 57.41185 35857 ft 453 kts 237°
2026-05-07 22:58 9.64133 57.35777 35868 ft 452 kts 238°
2026-05-07 22:58 9.60833 57.30412 35855 ft 452 kts 237°
2026-05-07 22:59 9.57475 57.25032 35858 ft 451 kts 237°
2026-05-07 22:59 9.54132 57.19658 35855 ft 451 kts 237°
2026-05-07 23:00 9.50793 57.14275 35856 ft 451 kts 237°
2026-05-07 23:00 9.47459 57.08900 35857 ft 451 kts 237°
2026-05-07 23:01 9.44140 57.03550 35861 ft 452 kts 237°
2026-05-07 23:01 9.40795 56.98162 35857 ft 452 kts 237°
2026-05-07 23:02 9.37440 56.92761 35856 ft 453 kts 237°
2026-05-07 23:02 9.34105 56.87393 35855 ft 454 kts 237°
2026-05-07 23:03 9.30742 56.81983 35855 ft 455 kts 237°
2026-05-07 23:03 9.27369 56.76557 35855 ft 455 kts 237°
2026-05-07 23:04 9.23996 56.71136 35855 ft 456 kts 237°
2026-05-07 23:04 9.20633 56.65743 35855 ft 456 kts 237°
2026-05-07 23:05 9.17248 56.60323 35854 ft 456 kts 237°
2026-05-07 23:05 9.13851 56.54906 35854 ft 455 kts 237°
2026-05-07 23:06 9.10553 56.49443 35862 ft 455 kts 237°
2026-05-07 23:06 9.07166 56.44081 35854 ft 455 kts 237°
2026-05-07 23:07 9.03756 56.38696 35854 ft 455 kts 237°
2026-05-07 23:07 9.00367 56.33302 35855 ft 454 kts 237°
2026-05-07 23:08 8.96987 56.27900 35856 ft 454 kts 237°
2026-05-07 23:08 8.93636 56.22541 35854 ft 454 kts 237°
2026-05-07 23:09 8.90264 56.17153 35853 ft 454 kts 237°
2026-05-07 23:09 8.86887 56.11761 35856 ft 453 kts 237°
2026-05-07 23:10 8.83516 56.06379 35853 ft 453 kts 237°
2026-05-07 23:10 8.80162 56.01028 35855 ft 453 kts 237°
2026-05-07 23:11 8.76790 55.95649 35853 ft 453 kts 237°
2026-05-07 23:11 8.73410 55.90261 35855 ft 454 kts 237°
2026-05-07 23:12 8.70055 55.84915 35853 ft 454 kts 237°
2026-05-07 23:12 8.66674 55.79528 35853 ft 454 kts 237°
2026-05-07 23:13 8.63285 55.74132 35853 ft 455 kts 237°
2026-05-07 23:13 8.59898 55.68740 35851 ft 455 kts 237°
2026-05-07 23:14 8.56526 55.63375 35856 ft 455 kts 237°
2026-05-07 23:14 8.53133 55.57978 35855 ft 455 kts 237°
2026-05-07 23:15 8.49735 55.52576 35854 ft 455 kts 237°
2026-05-07 23:15 8.46342 55.47184 35855 ft 455 kts 237°
2026-05-07 23:16 8.42943 55.41785 35856 ft 455 kts 237°
2026-05-07 23:16 8.39571 55.36430 35854 ft 455 kts 237°
2026-05-07 23:17 8.36173 55.31036 35852 ft 455 kts 237°
2026-05-07 23:17 8.32780 55.25653 35852 ft 455 kts 237°
2026-05-07 23:18 8.29384 55.20265 35853 ft 454 kts 237°
2026-05-07 23:18 8.26015 55.14923 35855 ft 454 kts 237°
2026-05-07 23:19 8.22621 55.09542 35853 ft 454 kts 237°
2026-05-07 23:19 8.19230 55.04169 35849 ft 454 kts 237°
2026-05-07 23:20 8.16409 54.99699 35850 ft 454 kts 237°
2026-05-07 23:20 8.12539 54.93408 35850 ft 454 kts 237°
2026-05-07 23:21 8.09236 54.87970 35852 ft 454 kts 237°
2026-05-07 23:21 8.06489 54.83458 35852 ft 454 kts 237°
2026-05-07 23:22 8.03173 54.78025 35850 ft 454 kts 237°
2026-05-07 23:22 7.99317 54.71718 35853 ft 455 kts 237°
2026-05-07 23:23 7.95998 54.66293 35852 ft 455 kts 237°
2026-05-07 23:23 7.93234 54.61775 35852 ft 455 kts 237°
2026-05-07 23:24 7.89907 54.56340 35851 ft 455 kts 237°
2026-05-07 23:24 7.86583 54.50910 35849 ft 455 kts 237°
2026-05-07 23:25 7.83275 54.45509 35855 ft 455 kts 237°
2026-05-07 23:25 7.79947 54.40078 35851 ft 455 kts 237°
2026-05-07 23:26 7.76618 54.34646 35848 ft 455 kts 237°
2026-05-07 23:26 7.73291 54.29220 35850 ft 455 kts 237°
2026-05-07 23:27 7.68300 54.21084 35851 ft 455 kts 237°
2026-05-07 23:27 7.64993 54.15696 35848 ft 455 kts 237°
2026-05-07 23:28 7.61669 54.10281 35850 ft 454 kts 237°
2026-05-07 23:28 7.58342 54.04864 35849 ft 454 kts 237°
2026-05-07 23:29 7.55020 53.99457 35847 ft 454 kts 237°
2026-05-07 23:29 7.51718 53.94084 35846 ft 454 kts 237°
2026-05-07 23:30 7.48398 53.88683 35846 ft 453 kts 237°
2026-05-07 23:30 7.45074 53.83279 35847 ft 453 kts 237°
2026-05-07 23:31 7.41753 53.77881 35847 ft 453 kts 237°
2026-05-07 23:31 7.38454 53.72520 35844 ft 454 kts 237°
2026-05-07 23:32 7.35127 53.67115 35843 ft 454 kts 237°
2026-05-07 23:32 7.31794 53.61727 35846 ft 454 kts 238°
2026-05-07 23:33 7.28490 53.56308 35845 ft 453 kts 237°
2026-05-07 23:33 7.25171 53.50964 35847 ft 453 kts 237°
2026-05-07 23:34 7.21837 53.45569 35848 ft 454 kts 237°
2026-05-07 23:34 7.18504 53.40169 35846 ft 454 kts 237°
2026-05-07 23:35 7.15173 53.34774 35844 ft 454 kts 237°
2026-05-07 23:35 7.11859 53.29408 35844 ft 454 kts 237°
2026-05-07 23:36 7.08525 53.24013 35845 ft 454 kts 237°
2026-05-07 23:36 7.05186 53.18612 35843 ft 454 kts 237°
2026-05-07 23:37 7.01851 53.13220 35844 ft 454 kts 237°
2026-05-07 23:37 6.98536 53.07861 35844 ft 454 kts 237°
2026-05-07 23:38 6.95213 53.02471 35843 ft 453 kts 238°
2026-05-07 23:38 6.91908 52.97078 35840 ft 453 kts 239°
2026-05-07 23:39 6.88596 52.91685 35845 ft 452 kts 237°
2026-05-07 23:39 6.85230 52.86335 35843 ft 452 kts 237°
2026-05-07 23:40 6.81915 52.81019 35841 ft 452 kts 237°
2026-05-07 23:40 6.78587 52.75653 35843 ft 451 kts 237°
2026-05-07 23:41 6.77129 52.72855 35710 ft 456 kts 250°
2026-05-07 23:41 6.76426 52.69714 35019 ft 472 kts 268°
2026-05-07 23:41 6.76866 52.66362 33821 ft 499 kts 288°
2026-05-07 23:41 6.78451 52.63206 33130 ft 509 kts 306°
2026-05-07 23:42 6.80785 52.60688 33813 ft 485 kts 321°
2026-05-07 23:42 6.83486 52.58897 35138 ft 448 kts 333°
2026-05-07 23:42 6.86274 52.57743 36226 ft 422 kts 343°
2026-05-07 23:42 6.89109 52.57044 36353 ft 421 kts 351°
2026-05-07 23:43 6.92080 52.56670 35537 ft 442 kts 356°
2026-05-07 23:43 6.95255 52.56566 34512 ft 470 kts
2026-05-07 23:43 6.98578 52.56708 34101 ft 481 kts
2026-05-07 23:43 7.01854 52.57050 34606 ft 464 kts
2026-05-07 23:44 7.04892 52.57635 35543 ft 439 kts 18°
2026-05-07 23:44 7.07687 52.58757 35926 ft 430 kts 28°
2026-05-07 23:44 7.10230 52.60385 35509 ft 440 kts 38°
2026-05-07 23:44 7.12614 52.62410 34800 ft 459 kts 44°
2026-05-07 23:45 7.14895 52.64720 34428 ft 468 kts 51°
2026-05-07 23:45 7.16699 52.67434 34423 ft 466 kts 66°
2026-05-07 23:45 7.17710 52.70514 34478 ft 462 kts 80°
2026-05-07 23:45 7.18023 52.73664 34691 ft 455 kts 91°
2026-05-07 23:46 7.17774 52.76833 35052 ft 444 kts 100°
2026-05-07 23:46 7.16986 52.79766 35225 ft 439 kts 114°
2026-05-07 23:46 7.15377 52.82413 34628 ft 454 kts 131°
2026-05-07 23:46 7.12993 52.84583 33796 ft 475 kts 148°
2026-05-07 23:47 7.09976 52.86019 33306 ft 483 kts 163°
2026-05-07 23:47 7.06718 52.86641 33815 ft 468 kts 176°
2026-05-07 23:47 7.03569 52.86574 34856 ft 438 kts 187°
2026-05-07 23:47 7.00656 52.86008 35732 ft 418 kts 195°
2026-05-07 23:48 6.97921 52.85079 35844 ft 418 kts 201°
2026-05-07 23:48 6.95260 52.83860 35212 ft 436 kts 206°
2026-05-07 23:48 6.92602 52.82225 34294 ft 461 kts 218°
2026-05-07 23:48 6.90244 52.79932 33604 ft 479 kts 230°
2026-05-07 23:49 6.88343 52.77209 33881 ft 470 kts 240°
2026-05-07 23:49 6.86944 52.74342 34877 ft 442 kts 248°
2026-05-07 23:49 6.85977 52.71505 35840 ft 418 kts 254°
2026-05-07 23:49 6.85308 52.68677 36040 ft 416 kts 259°
2026-05-07 23:50 6.84840 52.65752 35379 ft 435 kts 262°
2026-05-07 23:50 6.84522 52.62629 34451 ft 461 kts 265°
2026-05-07 23:50 6.84344 52.59398 34068 ft 472 kts 268°
2026-05-07 23:50 6.84292 52.56135 34520 ft 457 kts 269°
2026-05-07 23:51 6.84343 52.53024 35443 ft 432 kts 271°
2026-05-07 23:51 6.84466 52.50067 36057 ft 419 kts 272°
2026-05-07 23:51 6.84645 52.47132 35889 ft 425 kts 274°
2026-05-07 23:51 6.84877 52.44097 35118 ft 446 kts 274°
2026-05-07 23:52 6.85158 52.40950 34402 ft 467 kts 275°
2026-05-07 23:52 6.85489 52.37691 34314 ft 468 kts 276°
2026-05-07 23:52 6.85849 52.34486 34917 ft 450 kts 276°
2026-05-07 23:52 6.86428 52.31473 35606 ft 434 kts 287°
2026-05-07 23:53 6.87522 52.28656 35622 ft 435 kts 298°
2026-05-07 23:53 6.89278 52.26101 34743 ft 458 kts 313°
2026-05-07 23:53 6.91715 52.23893 33748 ft 484 kts 324°
2026-05-07 23:53 6.94613 52.22137 33589 ft 486 kts 334°
2026-05-07 23:54 6.97666 52.20890 34476 ft 459 kts 342°
2026-05-07 23:54 7.00607 52.20122 35620 ft 428 kts 352°
2026-05-07 23:54 7.03542 52.20009 35889 ft 423 kts
2026-05-07 23:54 7.06468 52.20727 34814 ft 449 kts 24°
2026-05-07 23:55 7.09242 52.22403 33098 ft 489 kts 43°
2026-05-07 23:55 7.11512 52.25055 32126 ft 506 kts 58°
2026-05-07 23:55 7.12863 52.28219 32814 ft 479 kts 78°
2026-05-07 23:55 7.13105 52.31421 34183 ft 442 kts 96°
2026-05-07 23:56 7.12362 52.34323 34805 ft 427 kts 118°
2026-05-07 23:56 7.10612 52.36738 33942 ft 447 kts 138°
2026-05-07 23:56 7.07906 52.38498 32311 ft 484 kts 161°
2026-05-07 23:56 7.04487 52.38959 30975 ft 512 kts 186°
2026-05-07 23:57 7.01133 52.37861 30883 ft 507 kts 212°
2026-05-07 23:57 6.98562 52.35626 32151 ft 468 kts 230°
2026-05-07 23:57 6.96894 52.33041 34188 ft 417 kts 245°
2026-05-07 23:57 6.96041 52.30391 35219 ft 397 kts 259°
2026-05-07 23:58 6.95787 52.27594 34816 ft 412 kts 270°
2026-05-07 23:58 6.96129 52.24615 33393 ft 452 kts 282°
2026-05-07 23:58 6.97061 52.21456 32176 ft 485 kts 291°
2026-05-07 23:58 6.98483 52.18390 32469 ft 475 kts 299°
2026-05-07 23:59 7.00210 52.15718 33890 ft 439 kts 312°
2026-05-07 23:59 7.02569 52.13871 34154 ft 435 kts 336°
2026-05-07 23:59 7.05605 52.13154 32354 ft 473 kts
2026-05-07 23:59 7.08974 52.13802 30510 ft 515 kts 24°
2026-05-08 00:00 7.11962 52.15720 30613 ft 498 kts 45°
2026-05-08 00:00 7.13940 52.18272 32472 ft 440 kts 62°
2026-05-08 00:00 7.14946 52.20979 34387 ft 396 kts 81°
2026-05-08 00:00 7.15058 52.23703 34556 ft 395 kts 98°
2026-05-08 00:01 7.14373 52.26485 33141 ft 431 kts 113°
2026-05-08 00:01 7.12725 52.29184 31222 ft 479 kts 133°
2026-05-08 00:01 7.09979 52.31244 30309 ft 501 kts 154°
2026-05-08 00:01 7.06784 52.32327 31386 ft 465 kts 170°
2026-05-08 00:02 7.03752 52.32444 33501 ft 412 kts 187°
2026-05-08 00:02 7.01128 52.31677 34458 ft 397 kts 208°
2026-05-08 00:02 6.98892 52.29929 33231 ft 428 kts 229°
2026-05-08 00:02 6.97100 52.27294 31260 ft 484 kts 240°
2026-05-08 00:03 6.95578 52.24223 31081 ft 487 kts 246°
2026-05-08 00:03 6.94411 52.21200 32826 ft 434 kts 251°
2026-05-08 00:03 6.93636 52.18466 34870 ft 384 kts 259°
2026-05-08 00:03 6.93443 52.15837 35298 ft 380 kts 276°
2026-05-08 00:04 6.94126 52.13144 33311 ft 428 kts 295°
2026-05-08 00:04 6.96016 52.10511 30232 ft 506 kts 319°
2026-05-08 00:04 6.98965 52.08422 29125 ft 525 kts 331°
2026-05-08 00:04 7.01988 52.06895 31595 ft 438 kts 338°
2026-05-08 00:05 7.04580 52.06061 34799 ft 359 kts 352°
2026-05-08 00:05 7.07005 52.06060 35461 ft 352 kts 13°
2026-05-08 00:05 7.09573 52.06540 33531 ft 406 kts 10°